Location: *
(49.3667°N, 11.6167°E)
Time: 18:08:14
(UTC+00:00)

Daily predictions for brighter satellites

Satellite Brightness Start Highest point End
(mag) Time Altitude Azimuth Time Altitude Azimuth Time Altitude Azimuth
SL-16 R/B 3.3 17:33:39 10° NNW 17:38:28 27° NE 17:43:16 10° ESE
Cosmos 1544 3.3 17:35:55 10° SSE 17:39:22 46° E 17:42:52 10° NNE
Cosmos 1707 3.2 17:37:57 10° N 17:41:41 41° ENE 17:45:25 10° SSE
ATLAS 2AS CENTAUR R/B 3.4 17:35:33 10° NW 17:43:12 67° SW 17:50:13 10° SSE
Cosmos 1140 Rocket 4.1 17:38:35 10° N 17:43:23 37° ENE 17:48:08 10° SE
Cosmos 1300 Rocket 3.9 17:40:14 10° SSW 17:44:32 72° W 17:48:51 10° N
Nadezhda 1 Rocket 4.0 17:40:50 10° S 17:46:47 61° E 17:52:48 10° NNE
SL-8 R/B 3.7 17:42:14 10° WSW 17:47:02 78° S 17:51:50 10° E
Cosmos 2327 Rocket 4.5 17:41:35 10° N 17:47:51 81° E 17:53:59 10° SSE
IRS-1A Rocket 4.4 17:42:22 10° SE 17:47:54 57° ENE 17:53:22 10° N
RESURS DK-1 4.4 17:46:35 10° N 17:48:52 14° NE 17:51:10 10° ENE
COSMO-SKYMED 1 3.0 17:45:03 10° N 17:49:23 68° WNW 17:53:41 10° SSW
ISS -2.5 17:48:23 10° SSW 17:51:09 25° SE 17:53:55 10° E
ERBS 3.0 17:48:03 10° NW 17:51:19 42° NNE 17:54:30 10° E
Okean 1-7 Rocket 4.3 17:48:00 10° N 17:52:04 34° ENE 17:56:09 10° SE
NOAA 11 4.2 17:46:40 10° SSE 17:52:07 69° ENE 17:57:35 10° N
GEOS 3 Rocket 3.8 17:49:52 10° ESE 17:54:52 58° NE 17:59:55 10° NW
COSMOS 2428 3.7 17:51:29 10° NW 17:56:59 52° WSW 18:02:28 10° S
ARGOS 4.1 17:58:16 10° ESE 18:02:46 28° ENE 18:07:18 10° N
Meteor 1-4 Rocket 2.9 18:02:46 10° N 18:06:08 40° ENE 18:09:26 10° SE
USA 186 2.7 18:05:26 10° SE 18:08:32 32° ENE 18:11:37 10° N
Cosmos 2227 Rocket 2.7 18:05:16 10° S 18:10:22 36° ESE 18:15:31 10° NE
Cosmos 1455 Rocket 3.9 18:07:24 10° SSE 18:11:11 28° E 18:15:01 10° NNE
CZ-2D R/B 3.7 18:09:37 10° S 18:13:23 66° WSW 18:17:12 10° NNW
CZ-4 R/B 3.7 18:10:56 10° SSW 18:14:18 27° W 18:17:45 10° NW
SJ-6B 3.5 18:11:07 10° SE 18:14:55 38° ENE 18:18:42 10° N
SPOT 3 Rocket 3.9 18:10:14 10° SE 18:15:06 44° ENE 18:20:00 10° N
Cosmos 2219 3.2 18:10:22 10° SSW 18:16:03 65° ESE 18:21:44 10° NNE
Cosmos 1371 Rocket 4.1 18:10:53 10° S 18:16:04 56° ESE 18:21:19 10° NNE
CZ-2C R/B 4.3 18:14:50 14° ESE 18:18:15 26° ENE 18:22:48 10° N
Cosmos 2297 Rocket 2.5 18:15:08 10° S 18:20:28 45° ESE 18:25:51 10° NE
Cosmos 1766 4.4 18:19:06 15° SE 18:21:16 22° E 18:24:21 10° NE
Cosmos 676 Rocket 4.0 18:20:04 10° NNW 18:25:19 62° ENE 18:30:06 12° SE
Cosmos 1023 Rocket 4.4 18:24:37 10° NNW 18:29:49 83° ENE 18:34:55 10° SSE
Meteor 2-17 Rocket 4.4 18:25:58 10° N 18:32:03 72° ENE 18:38:06 10° SSE
MOS 1 4.4 18:28:55 10° SSE 18:34:37 85° WSW 18:40:21 10° NNW
Lacrosse 5 rocket 1.3 18:31:42 10° SSW 18:35:11 45° SE 18:37:12 22° ENE
In-Cosmos 22 4.1 18:30:59 10° NNW 18:36:23 90° N 18:41:53 10° S
Okean 1 Rocket 4.1 18:32:11 10° SSW 18:36:24 49° WNW 18:40:41 10° N
Cosmos 405 Rocket 2.5 18:33:34 10° S 18:37:13 67° E 18:40:57 10° NNE
Cosmos 2341 Rocket 4.0 18:32:46 10° N 18:39:03 86° W 18:45:16 10° S
Cosmos 2181 Rocket 4.0 18:33:38 10° S 18:39:48 63° E 18:46:06 10° NNE
Cosmos 1939 Rocket 4.3 18:37:09 10° SSW 18:40:45 38° W 18:44:24 10° NNW
Cosmos 1190 Rocket 4.4 18:36:01 10° NNW 18:41:16 65° WSW 18:46:27 10° S
H-2A R/B 2.1 18:40:24 17° SE 18:44:11 57° ENE 18:49:11 10° N
Cosmos 1437 Rocket 2.7 18:42:47 10° N 18:46:34 58° ENE 18:48:19 28° SE
Cosmos 1674 2.8 18:43:19 10° N 18:46:58 51° ENE 18:48:20 32° SE
Resurs 1-3 3.9 18:47:35 28° ESE 18:49:26 45° ENE 18:53:38 10° N
Cosmos 2237 Rocket 3.0 18:44:27 10° NW 18:49:58 50° WSW 18:55:26 10° S
Cosmos 1602 Rocket 4.1 18:46:20 10° N 18:50:23 36° ENE 18:51:23 32° ESE
Meteor 1-15 Rocket 4.3 18:44:42 10° SSW 18:50:31 85° WNW 18:56:28 10° NNE
Cosmos 2366 rocket 4.0 18:45:27 10° N 18:51:51 71° E 18:58:01 11° SSE
Cosmos 864 Rocket 4.5 18:45:38 10° N 18:51:52 68° ENE 18:57:37 12° SSE
ADEOS Rocket 3.7 18:45:03 10° NNE 18:52:17 52° E 18:59:48 10° S
Cosmos 2218 Rocket 4.0 18:46:17 10° N 18:52:41 76° E 18:58:59 10° SSE
Cosmos 1850 Rocket 4.3 18:53:08 10° NNW 18:58:11 49° ENE 19:00:08 33° ESE
Meteor 1-24 Rocket 3.8 18:53:08 10° N 18:58:56 69° ENE 19:03:15 19° SSE
SL-8 Rocket 4.0 18:53:56 10° N 19:00:09 84° W 19:06:18 10° S
FREGAT/IRIS 4.4 18:58:02 10° SSW 19:00:33 29° W 19:03:06 10° NNW
Cosmos 389 Rocket 4.4 18:57:31 10° NNW 19:00:34 30° W 19:03:36 10° SSW
Resurs 01 Rocket 1.9 19:02:49 39° ESE 19:03:57 49° ENE 19:08:16 10° N
CZ-2C R/B 3.7 18:59:47 10° NNE 19:04:16 81° WNW 19:08:41 10° SSW
Cosmos 1805 3.1 19:06:58 30° S 19:08:47 70° E 19:12:41 10° NNE
USA 234 4.0 19:02:37 10° ENE 19:08:52 49° N 19:15:08 10° W
Cosmos 1959 Rocket 4.5 19:06:11 10° N 19:12:21 82° W 19:18:25 11° S
Cosmos 2056 Rocket 4.0 19:09:17 10° SW 19:14:40 63° WNW 19:20:02 10° NNE
ASTEX 1 4.4 19:10:08 10° N 19:14:49 47° WNW 19:19:29 10° SSW
Cosmos 1420 Rocket 3.9 19:12:13 10° SSW 19:17:30 70° ESE 19:22:49 10° NNE
Cosmos 1603 4.2 19:13:09 10° NNW 19:18:33 42° NE 19:19:52 37° E
CZ-4C R/B 4.2 19:14:32 10° NW 19:19:49 26° NNE 19:24:40 14° ENE
ERS-1 Rocket 4.3 19:20:52 23° ENE 19:20:52 23° ENE 19:24:38 10° N
KORONAS-FOTON 3.9 19:17:50 10° NNW 19:21:37 72° W 19:22:29 50° SSW
CZ-2C R/B 4.0 19:18:04 10° NE 19:21:05 24° ENE 19:21:05 24° ENE
SL-16 R/B 2.4 19:17:26 10° NNW 19:23:06 69° WSW 19:26:04 29° S
ISS -3.1 19:24:18 10° WSW 19:26:54 52° WSW 19:26:54 52° WSW
RESURS DK-1 2.2 19:23:29 10° NNW 19:27:38 77° ENE 19:27:47 76° E
ERBS 3.5 19:24:33 10° WNW 19:27:32 35° SW 19:27:32 35° SW
SL-08 RB Rocket 3.7 19:26:58 42° S 19:28:33 84° WSW 19:33:15 10° NNW
SL-8 R/B 3.6 19:24:44 10° W 19:29:30 70° SSW 19:30:06 62° SE
Cosmos 1741 Rocket 3.9 19:24:23 10° NNW 19:29:47 82° ENE 19:31:09 51° SE
Cosmos 1626 3.3 19:26:38 10° N 19:28:57 31° NNE 19:28:57 31° NNE
MetOp-B 4.3 19:30:54 49° E 19:31:37 53° ENE 19:36:50 10° N
Cosmos 2084 Rocket 4.1 19:27:20 10° WSW 19:31:45 57° NW 19:35:37 13° NE
Spot 2 Rocket 3.5 19:34:38 57° E 19:35:05 60° ENE 19:40:03 10° N
Cosmos 1733 4.0 19:39:10 42° NNE 19:39:10 42° NNE 19:41:47 10° N
Cosmos 2082 3.8 19:33:42 10° SSW 19:39:26 80° WNW 19:45:12 10° NNE
Meteor 1-22 Rocket 4.5 19:35:07 10° SSW 19:41:13 80° WNW 19:47:22 10° N
Terra 3.7 19:42:20 18° NE 19:42:20 18° NE 19:44:33 10° NNE
ARGOS 3.8 19:39:17 21° S 19:42:45 52° W 19:48:03 10° NNW
SPOT 1/Viking Rocket 4.4 19:44:24 35° NE 19:44:24 35° NE 19:48:36 10° N
SL-14 R/B 3.8 19:45:49 10° NNW 19:48:58 54° NNW 19:48:58 54° NNW
Cosmos 2227 Rocket 3.3 19:48:56 10° SW 19:54:20 45° NW 19:59:48 10° NNE
DMSP B5D2-2 4.0 19:50:54 10° NNE 19:56:01 74° E 19:56:01 74° E
Cosmos 1934 Rocket 4.0 19:50:44 10° N 19:56:47 57° ENE 19:56:55 57° E
CZ-2C R/B 3.6 19:55:54 40° SSW 19:57:41 60° W 20:03:16 10° NNW
Cosmos 2297 Rocket 3.6 19:59:24 10° WSW 20:04:39 37° NW 20:09:54 10° NNE
Cosmos 1452 Rocket 4.0 20:03:40 10° SW 20:08:49 57° WNW 20:14:01 10° NNE
Cosmos 2263 Rocket 4.4 20:18:29 12° NE 20:18:29 12° NE 20:18:58 10° NE
USA 245 4.2 20:14:09 85° E 20:14:12 85° ENE 20:19:42 10° NNW
Lacrosse 5 rocket 3.1 20:10:50 10° W 20:12:54 28° WNW 20:12:54 28° WNW
Cosmos 1943 3.3 20:17:18 10° NNW 20:22:30 74° N 20:22:30 74° N
H-2A R/B 4.1 20:21:02 13° SW 20:24:01 22° W 20:27:54 10° NW
Nadezhda 3 Rocket 4.3 20:30:13 48° SW 20:31:48 63° WNW 20:38:00 10° N
Cosmos 2285 Rocket 4.4 20:29:43 10° NNW 20:35:23 52° NE 20:35:23 52° NE
Resurs 01 Rocket 3.7 20:40:24 21° W 20:40:43 21° W 20:44:07 10° NW
Cosmos 1605 Rocket 4.1 20:35:57 10° N 20:41:34 68° NNE 20:41:34 68° NNE
USA 234 3.9 20:49:56 43° NE 20:51:15 49° N 20:57:30 10° WNW
ERS-1 Rocket 4.2 21:00:53 38° NW 21:00:53 38° NW 21:04:07 10° NNW
SPOT 5 4.4 21:05:28 35° NNW 21:05:28 35° NNW 21:08:26 10° NNW
CZ-2C R/B 3.5 20:57:56 10° N 21:02:35 49° NW 21:02:35 49° NW
CZ-4C R/B 3.3 21:03:18 10° NW 21:09:50 50° NE 21:09:50 50° NE
Terra 3.8 21:21:14 26° NNW 21:21:14 26° NNW 21:23:17 10° NNW
Cosmos 2082 Rocket 4.3 21:32:58 10° N 21:36:23 18° NNE 21:36:23 18° NNE
Cosmos 2263 Rocket 4.0 22:00:09 27° N 22:00:09 27° N 22:03:00 10° NNE
CZ-4C R/B 4.2 22:51:49 10° NW 22:54:59 29° WNW 22:54:59 29° WNW
Cosmos 2082 Rocket 4.4 23:16:21 10° NNW 23:18:11 21° NNW 23:18:11 21° NNW
